Weather History for Eagle Creek, IN

Change the Weather History Date:

Tuesday, April 16, 2013

  Actual Average Record
Temperature  
Mean Temperature 56 °F 53 °F  
Max Temperature 62 °F 63 °F 82 °F (2002)
Min Temperature 49 °F 44 °F 28 °F (2014)
Degree Days  
Heating Degree Days 9 12  
Month to date heating degree days 217 231  
Since 1 July heating degree days 5257 5056  
Cooling Degree Days 0 1  
Month to date cooling degree days 3 6  
Year to date cooling degree days 3 7  
Growing Degree Days 5 (Base 50)    
Moisture  
Dew Point 50 °F    
Average Humidity 86    
Maximum Humidity 100    
Minimum Humidity 72    
Precipitation  
Precipitation 0.00 in 0.11 in 0.64 in (1993)
Month to date precipitation 0.69 1.85  
Year to date precipitation 9.09 9.49  
Sea Level Pressure  
Sea Level Pressure 30.08 in    
Wind  
Wind Speed 6 mph (NNE)    
Max Wind Speed 24 mph    
Max Gust Speed 31 mph    
Visibility 6 miles    
Events Fog , Rain    
T = Trace of Precipitation, MM = Missing Value Source: NWS Daily Summary

Daily Weather History Graph

Daily Weather History Graph

Search for Another Location

Airport:

Trip Planner

Search our weather history database for the weather conditions in past years. The results will help you decide how hot, cold, wet, or windy it might be!

Date:

Astronomy

Apr. 16, 2013 Rise Set
Actual Time 7:05 AM EDT 8:24 PM EDT
Civil Twilight 6:37 AM EDT 8:52 PM EDT
Nautical Twilight 6:04 AM EDT 9:26 PM EDT
Astronomical Twilight 5:28 AM EDT 10:02 PM EDT
Moon 11:24 AM EDT (4/16) 1:21 AM EDT (4/16)
Length of Visible Light 14h 15m
Length of Day
13h 19m
Waxing Crescent, 33% of the Moon is Illuminated
Apr 16
Waxing Crescent
Apr 18
First Quarter
Apr 25
Full
May 2
Last Quarter
May 9
New

Hourly Weather History & Observations

Time (EDT) Temp. Dew Point Humidity Pressure Visibility Wind Dir Wind Speed Gust Speed Precip Events Conditions
12:53 AM 62.1 °F 53.1 °F 72% 29.91 in 10.0 mi SSE 8.1 mph - N/A   Mostly Cloudy
1:53 AM 62.1 °F 53.1 °F 72% 29.88 in 10.0 mi SSE 6.9 mph - N/A   Mostly Cloudy
2:53 AM 61.0 °F 53.1 °F 75% 29.88 in 10.0 mi SSE 5.8 mph - 0.00 in   Clear
3:53 AM 61.0 °F 53.1 °F 75% 29.88 in 10.0 mi South 5.8 mph - N/A   Partly Cloudy
4:53 AM 57.9 °F 54.0 °F 87% 29.91 in 10.0 mi Calm Calm - N/A   Overcast
5:53 AM 51.1 °F 48.0 °F 89% 29.98 in 10.0 mi NNW 10.4 mph - N/A   Overcast
6:48 AM 50.0 °F 48.2 °F 94% 30.00 in 8.0 mi Calm Calm - 0.00 in Rain Light Rain
6:53 AM 50.0 °F 48.0 °F 93% 30.01 in 8.0 mi NNW 5.8 mph - 0.00 in Rain Light Rain
7:03 AM 50.0 °F 48.2 °F 94% 30.00 in 10.0 mi Calm Calm - 0.00 in   Mostly Cloudy
8:03 AM 50.0 °F 48.2 °F 94% 30.05 in 1.8 mi Calm Calm - 0.00 in Rain Light Rain
8:13 AM 50.0 °F 48.2 °F 94% 30.08 in 3.0 mi Variable 3.5 mph - 0.00 in Rain Light Rain
8:17 AM 50.0 °F 48.2 °F 94% 30.08 in 1.5 mi Variable 4.6 mph - 0.00 in Rain Heavy Rain
8:36 AM 50.0 °F 48.2 °F 94% 30.08 in 2.5 mi NW 6.9 mph - N/A Rain Light Rain
8:43 AM 50.0 °F 48.2 °F 94% 30.05 in 5.0 mi North 9.2 mph - N/A Rain Light Rain
8:53 AM 48.9 °F 48.9 °F 100% 30.07 in 6.0 mi NNW 5.8 mph - N/A Rain Light Rain
9:05 AM 50.0 °F 48.2 °F 94% 30.07 in 10.0 mi NNE 3.5 mph - N/A   Overcast
9:53 AM 51.1 °F 48.9 °F 92% 30.07 in 10.0 mi South 3.5 mph - N/A   Overcast
10:12 AM 51.8 °F 51.8 °F 100% 30.04 in 8.0 mi Variable 3.5 mph - N/A Rain Light Rain
10:53 AM 51.1 °F 50.0 °F 96% 30.10 in 10.0 mi NW 6.9 mph - N/A   Overcast
11:53 AM 51.1 °F 48.9 °F 92% 30.10 in 10.0 mi North 6.9 mph - N/A   Overcast
12:06 PM 51.8 °F 50.0 °F 94% 30.12 in 10.0 mi NNW 8.1 mph - N/A   Overcast
12:42 PM 53.6 °F 51.8 °F 94% 30.11 in 10.0 mi Variable 5.8 mph - N/A   Overcast
12:53 PM 55.0 °F 51.1 °F 86% 30.10 in 10.0 mi North 6.9 mph - N/A   Overcast
1:10 PM 55.4 °F 51.8 °F 88% 30.09 in 10.0 mi NNE 5.8 mph - N/A   Overcast
1:21 PM 55.4 °F 51.8 °F 88% 30.09 in 10.0 mi NNE 6.9 mph - N/A   Mostly Cloudy
1:53 PM 54.0 °F 50.0 °F 86% 30.12 in 10.0 mi NNW 15.0 mph 24.2 mph N/A   Overcast
2:42 PM 51.8 °F 50.0 °F 94% 30.09 in 2.5 mi North 6.9 mph - N/A Rain Light Rain
2:46 PM 51.8 °F 50.0 °F 94% 30.10 in 3.0 mi North 5.8 mph - N/A Rain Light Rain
2:53 PM 51.1 °F 50.0 °F 96% 30.09 in 3.0 mi NE 6.9 mph - N/A Rain Rain
3:05 PM 51.8 °F 51.8 °F 100% 30.10 in 1.8 mi Calm Calm - N/A Rain Heavy Rain
3:12 PM 51.8 °F 51.8 °F 100% 30.10 in 0.8 mi North 3.5 mph - N/A Rain Heavy Rain
3:14 PM 51.8 °F 51.8 °F 100% 30.11 in 0.5 mi Calm Calm - N/A Fog , Rain Heavy Rain
3:26 PM 51.8 °F 51.8 °F 100% 30.12 in 0.5 mi Calm Calm - N/A Fog , Rain Heavy Rain
3:30 PM 51.8 °F 51.8 °F 100% 30.12 in 0.5 mi Calm Calm - N/A Fog , Rain Heavy Rain
3:40 PM 51.8 °F 51.8 °F 100% 30.11 in 1.0 mi NNE 4.6 mph - N/A Rain Rain
3:44 PM 51.8 °F 51.8 °F 100% 30.11 in 1.5 mi NNE 4.6 mph - N/A Rain Heavy Rain
3:53 PM 51.1 °F 51.1 °F 100% 30.14 in 1.2 mi SW 3.5 mph - N/A Rain Rain
4:07 PM 51.8 °F 51.8 °F 100% 30.14 in 1.2 mi Calm Calm - N/A Rain Rain
4:26 PM 51.8 °F 51.8 °F 100% 30.17 in 1.8 mi West 4.6 mph - N/A Rain Rain
4:47 PM 51.8 °F 51.8 °F 100% 30.11 in 3.0 mi North 6.9 mph - N/A Rain Light Rain
4:53 PM 51.1 °F 51.1 °F 100% 30.12 in 5.0 mi North 5.8 mph - N/A Rain Light Rain
4:58 PM 51.8 °F 51.8 °F 100% 30.11 in 7.0 mi NNE 6.9 mph - N/A Rain Light Rain
5:23 PM 51.8 °F 50.0 °F 94% 30.09 in 2.5 mi ENE 6.9 mph - N/A Rain Rain
5:33 PM 51.8 °F 51.8 °F 100% 30.08 in 3.0 mi SE 8.1 mph - N/A Rain Rain
5:53 PM 51.1 °F 51.1 °F 100% 30.12 in 4.0 mi North 8.1 mph - N/A Rain Rain
6:53 PM 48.9 °F 48.0 °F 97% 30.16 in 10.0 mi NNE 4.6 mph - N/A   Overcast
7:19 PM 48.2 °F 48.2 °F 100% 30.10 in 5.0 mi ENE 6.9 mph - N/A Rain Light Rain
7:45 PM 50.0 °F 48.2 °F 94% 30.15 in 10.0 mi North 12.7 mph - N/A   Mostly Cloudy
7:53 PM 48.9 °F 48.0 °F 97% 30.14 in 10.0 mi NNE 8.1 mph - N/A   Overcast
8:08 PM 48.2 °F 46.4 °F 93% 30.11 in 10.0 mi East 8.1 mph 16.1 mph N/A   Overcast
8:53 PM 48.9 °F 46.0 °F 90% 30.16 in 10.0 mi NE 4.6 mph - N/A   Overcast
9:53 PM 48.9 °F 46.0 °F 90% 30.18 in 10.0 mi ENE 4.6 mph - N/A   Overcast
10:53 PM 50.0 °F 46.9 °F 89% 30.17 in 10.0 mi NE 6.9 mph - N/A   Overcast
11:53 PM 50.0 °F 46.9 °F 89% 30.16 in 7.0 mi East 4.6 mph - N/A Rain Light Rain